Flag for Canada Weather past 2 weeks in Sherbrooke, Quebec, Canada

Now
73 °F

Passing clouds.


Feels Like: 77 °F
Forecast: N/A
Wind: 8 mph from South

Location: Sherbrooke

Current Time: Aug 30, 2014 at 6:48:18 PM

Latest Report: Aug 30, 2014 at 6:00 PM


Visibility: 9 mi

Pressure: 30.04 "Hg

Humidity: 57%

Dew point: 57 °F

Location of SherbrookeLocation

Historic Weather in Sherbrooke — Graph

°F

Sherbrooke temperature yesterday

Maximum temperature yesterday: 70 °F (at 3:00 PM)
Minimum temperature yesterday: 50 °F (at 11:00 PM)
Average temperature yesterday: 59 °F

Past Weeks' High & Low Weather Summary

 TemperatureHumidityPressure
High82 °F (Aug 25, 2:00 PM)100% (Aug 16, 11:57 PM)30.23 "Hg (Aug 16, 11:57 PM)
Low46 °F (Aug 19, 1:01 AM)38% (Aug 29, 3:00 PM)29.78 "Hg (Aug 17, 5:00 AM)
Average62 °F81%30.02 "Hg
* Reported Aug 15 5:00 PM — Aug 30 5:00 PM, Sherbrooke, Weather by CustomWeather, © 2014

Note: Actual official high and low records may vary slightly from our data, if they occured in-between our weather recording intervals... More about our weather records

Advertising

Sherbrooke weather history for previous 24 hours

 ConditionsComfort  
Time TempWeatherWind HumidityBarometerVisibility
5:00 PM
Aug 30
75 °FSunny.12 mph50%30.06 "Hg9 mi
4:00 PM77 °FSunny.10 mph47%30.07 "Hg9 mi
3:00 PM77 °FSunny.15 mph47%30.08 "Hg9 mi
2:00 PM75 °FPassing clouds.12 mph54%30.10 "Hg9 mi
1:00 PM72 °FSunny.12 mph61%30.12 "Hg9 mi
12:00 PM73 °FSunny.10 mph57%30.14 "Hg9 mi
11:00 AM70 °FSunny.12 mph64%30.16 "Hg9 mi
10:00 AM68 °FSunny.13 mph64%30.16 "Hg9 mi
9:00 AM64 °FPassing clouds.7 mph78%30.18 "Hg9 mi
8:00 AM61 °FScattered clouds.2 mph88%30.19 "Hg9 mi
7:00 AM52 °FOvercast.2 mph94%30.19 "Hg9 mi
6:00 AM48 °FPartly cloudy.No wind94%30.19 "Hg9 mi
5:00 AM50 °FMostly cloudy.2 mph94%30.19 "Hg9 mi
4:00 AM48 °FPassing clouds.2 mph94%30.20 "Hg9 mi
3:00 AM48 °FClear.5 mph94%30.20 "Hg9 mi
2:00 AM48 °FClear.3 mph94%30.22 "Hg9 mi
1:00 AM48 °FClear.2 mph94%30.22 "Hg9 mi
12:00 AM48 °FClear.2 mph94%30.21 "Hg9 mi
11:00 PM
Aug 29
50 °FClear.2 mph94%30.21 "Hg9 mi
10:00 PM54 °FClear.5 mph88%30.20 "Hg9 mi
9:00 PM55 °FClear.5 mph88%30.21 "Hg9 mi
8:00 PM55 °FSunny.2 mph82%30.19 "Hg8 mi
7:00 PM63 °FSunny.No wind68%30.20 "Hg9 mi
6:00 PM70 °FSunny.5 mph43%30.19 "Hg9 mi
Weather by CustomWeather, © 2014

See weather overviewHow to use our weather pages